Weather History for Conway, SC

Change the Weather History Date:

Wednesday, October 31, 2012

  Actual Average Record
Temperature  
Mean Temperature 44 °F -  
Max Temperature 50 °F 71 °F 78 °F (2013)
Min Temperature 37 °F 50 °F 37 °F (2012)
Degree Days  
Heating Degree Days 22    
Moisture  
Dew Point 35 °F    
Average Humidity 79    
Maximum Humidity 87    
Minimum Humidity 54    
Precipitation  
Precipitation 0.00 in - - ()
Sea Level Pressure  
Sea Level Pressure 29.73 in    
Wind  
Wind Speed 2 mph (SW)    
Max Wind Speed 5 mph    
Max Gust Speed -    
Visibility 7 miles    
Events      
Averages and records for this station are not official NWS values.
T = Trace of Precipitation, MM = Missing Value Source: NWS Daily Summary

Daily Weather History Graph

Daily Weather History Graph

Search for Another Location

Airport:

Trip Planner

Search our weather history database for the weather conditions in past years. The results will help you decide how hot, cold, wet, or windy it might be!

Date:

Astronomy

Oct. 31, 2012 Rise Set
Actual Time 7:35 AM EDT 6:24 PM EDT
Civil Twilight 7:09 AM EDT 6:50 PM EDT
Nautical Twilight 6:40 AM EDT 7:19 PM EDT
Astronomical Twilight 6:10 AM EDT 7:48 PM EDT
Moon 7:39 PM EDT (10/31) 9:09 AM EDT (10/31)
Length of Visible Light 11h 40m
Length of Day
10h 49m
Full, 97% of the Moon is Illuminated
Oct 31
Full
Nov 6
Last Quarter
Nov 13
New
Nov 20
First Quarter
Nov 28
Full

Hourly Weather History & Observations

Time (EDT) Temp. Windchill Dew Point Humidity Pressure Visibility Wind Dir Wind Speed Gust Speed Precip Events Conditions
12:15 AM 50.0 °F - 33.8 °F 54% 29.71 in 7.0 mi WSW 3.5 mph - N/A   Clear
12:35 AM 50.0 °F - 33.8 °F 54% 29.71 in 7.0 mi Calm Calm - N/A   Clear
12:55 AM 48.2 °F - 35.6 °F 62% 29.71 in 7.0 mi Calm Calm - N/A   Clear
1:15 AM 46.4 °F - 35.6 °F 66% 29.71 in 5.0 mi Calm Calm - N/A   Haze
1:35 AM 42.8 °F - 37.4 °F 81% 29.72 in 10.0 mi Calm Calm - N/A   Clear
1:55 AM 42.8 °F - 37.4 °F 81% 29.72 in 7.0 mi Calm Calm - N/A   Clear
2:15 AM 41.0 °F 39.0 °F 37.4 °F 87% 29.72 in 7.0 mi SSW 3.5 mph - N/A   Clear
2:35 AM 41.0 °F - 37.4 °F 87% 29.72 in 7.0 mi Calm Calm - N/A   Clear
2:55 AM 41.0 °F 38.0 °F 37.4 °F 87% 29.73 in 7.0 mi SSW 4.6 mph - N/A   Clear
3:15 AM 41.0 °F 38.0 °F 35.6 °F 81% 29.73 in 7.0 mi SW 4.6 mph - N/A   Clear
3:35 AM 41.0 °F 39.0 °F 35.6 °F 81% 29.73 in 7.0 mi SSW 3.5 mph - N/A   Clear
3:55 AM 41.0 °F 39.0 °F 35.6 °F 81% 29.73 in 7.0 mi SW 3.5 mph - N/A   Clear
4:15 AM 41.0 °F 39.0 °F 35.6 °F 81% 29.73 in 7.0 mi SSW 3.5 mph - N/A   Clear
4:35 AM 41.0 °F 38.0 °F 35.6 °F 81% 29.73 in 7.0 mi SSW 4.6 mph - N/A   Clear
4:55 AM 39.2 °F 37.0 °F 35.6 °F 87% 29.73 in 7.0 mi SSW 3.5 mph - N/A   Clear
5:15 AM 41.0 °F 39.0 °F 35.6 °F 81% 29.74 in 7.0 mi SSW 3.5 mph - N/A   Clear
5:35 AM 39.2 °F 37.0 °F 33.8 °F 81% 29.74 in 7.0 mi SW 3.5 mph - N/A   Clear
5:55 AM 39.2 °F 37.0 °F 33.8 °F 81% 29.74 in 7.0 mi SW 3.5 mph - N/A   Clear
6:15 AM 39.2 °F 37.0 °F 33.8 °F 81% 29.75 in 7.0 mi SW 3.5 mph - N/A   Clear
6:35 AM 37.4 °F 34.9 °F 33.8 °F 87% 29.75 in 7.0 mi SW 3.5 mph - N/A   Clear
6:55 AM 39.2 °F 37.0 °F 33.8 °F 81% 29.75 in 7.0 mi SW 3.5 mph - N/A   Clear
7:15 AM 37.4 °F 34.9 °F 33.8 °F 87% 29.76 in 7.0 mi SW 3.5 mph - N/A   Clear
7:35 AM 37.4 °F 34.9 °F 33.8 °F 87% 29.76 in 7.0 mi SW 3.5 mph - N/A   Clear
7:55 AM 37.4 °F - 33.8 °F 87% 29.77 in 5.0 mi Calm Calm - N/A   Haze
8:15 AM 41.0 °F 38.0 °F 33.8 °F 76% 29.77 in 5.0 mi SW 4.6 mph - N/A   Haze